This demonstration page uses our WeatherBlox Daily Observations layout. Learn more.

Left ArrowRight Arrow

47.50024, -111.30081

Hourly Observations for April 15, 2022

Temp ( °F °C ) Dew Point ( °F °C ) Humidity (%) Winds ( mph kmh ) Pressure ( in mb ) Visibility ( mi km ) Precip ( " mm )
12:35 am 00:35 Cloudy with Light Snow 17 -8.3 13 -10.6 84 84 NNW 7 11 30.23 1024 3 4 0.00 0.00
12:45 am 00:45 Cloudy with Light Snow 17 -8.3 13 -10.6 84 84 N 7 11 30.23 1024 3 5 0.00 0.00
12:53 am 00:53 Cloudy with Light Snow 17 -8.3 13 -10.6 84 84 N 6 9 30.18 1022 3 5 0.00 0.00
1:26 am 01:26 Cloudy 16 -8.9 12 -11.1 84 84 NNE 5 7 30.24 1024 9 14 0.00 0.00
1:53 am 01:53 Cloudy 16 -8.9 12 -11.1 84 84 NNE 3 6 30.18 1022 10 16 0.00 0.00
2:53 am 02:53 Cloudy 16 -8.9 12 -11.1 84 84 WSW 3 6 30.17 1022 10 16 0.00 0.00
3:53 am 03:53 Cloudy 13 -10.6 10 -12.2 88 88 W 6 9 30.18 1022 10 16 0.00 0.00
4:53 am 04:53 Cloudy 9 -12.8 7 -13.9 92 92 W 5 7 30.19 1022 10 16 0.00 0.00
5:53 am 05:53 Cloudy 11 -11.7 9 -12.8 92 92 WNW 6 9 30.19 1022 10 16 0.00 0.00
6:38 am 06:38 Cloudy with Light Snow 12 -11.1 9 -12.8 87 87 WSW 3 6 30.28 1025 2 3 0.00 0.00
6:41 am 06:41 Cloudy with Light Snow 12 -11.1 9 -12.8 87 87 WSW 3 6 30.28 1025 2 3 0.00 0.00
6:48 am 06:48 Cloudy with Light Snow 12 -11 10 -12 92 92 SW 3 6 30.28 1026 2 3 0.00 0.00
6:53 am 06:53 Cloudy with Light Snow 13 -10.6 10 -12.2 88 88 WSW 3 6 30.20 1023 2 3 0.00 0.00
7:20 am 07:20 Cloudy with Light Snow 14 -10 12 -11.1 92 92 WSW 3 6 30.27 1025 2 3 0.01 0.25
7:29 am 07:29 Cloudy with Light Snow 14 -10 12 -11.1 92 92 SW 5 7 30.28 1025 1 2 0.01 0.25
7:48 am 07:48 Mostly Cloudy with Light Snow 16 -9 12 -11 86 86 SW 5 7 30.26 1025 1 1 0.02 0.51
7:53 am 07:53 Mostly Cloudy with Light Snow 15 -9.4 12 -11.1 88 88 WSW 5 7 30.22 1023 1 1 0.02 0.51
8:10 am 08:10 Cloudy with Light Snow 15 -9.4 12 -11.1 88 88 WSW 6 9 30.28 1025 1 2 0.00 0.00
8:53 am 08:53 Cloudy with Light Snow 17 -8.3 13 -10.6 84 84 W 6 9 30.22 1024 3 4 0.01 0.25
9:11 am 09:11 Cloudy with Light Snow 16 -8.9 12 -11.1 84 84 WSW 7 11 30.28 1025 1 2 0.00 0.00
9:34 am 09:34 Cloudy with Light Snow 17 -8.3 14 -10 88 88 SSW 6 9 30.27 1025 2 2 0.01 0.25
9:53 am 09:53 Cloudy with Light Snow 17 -8.3 14 -10 88 88 SW 7 11 30.24 1024 1 2 0.01 0.25
10:20 am 10:20 Cloudy with Light Snow 18 -7.8 14 -10 84 84 SSW 8 13 30.27 1025 2 3 0.00 0.00
10:37 am 10:37 Cloudy with Light Snow 19 -7.2 14 -10 81 81 SSW 7 11 30.26 1025 2 3 0.00 0.00
10:53 am 10:53 Cloudy with Light Snow 20 -6.7 14 -10 78 78 WSW 7 11 30.24 1024 2 3 0.01 0.25
11:09 am 11:09 Cloudy with Haze 19 -7.2 14 -10 81 81 SW 8 13 30.27 1025 5 8 0.00 0.00
11:41 am 11:41 Mostly Sunny 20 -6.7 13 -10.6 74 74 WSW 6 9 30.28 1025 10 16 0.00 0.00
11:53 am 11:53 Mostly Sunny 20 -6.7 13 -10.6 74 74 SW 7 11 30.25 1024 10 16 0.00 0.00
12:53 pm 12:53 Sunny 22 -5.6 12 -11.1 66 66 WSW 7 11 30.25 1024 10 16 0.00 0.00
1:53 pm 13:53 Sunny 24 -4.4 12 -11.1 60 60 W 5 7 30.25 1024 10 16 0.00 0.00
2:02 pm 14:02 Sunny 24 -4.4 11 -11.7 57 57 Calm 30.24 1024 10 16 0.00 0.00
2:53 pm 14:53 Sunny 24 -4.4 10 -12.2 55 55 Calm 30.25 1024 10 16 0.00 0.00
3:53 pm 15:53 Sunny 25 -3.9 12 -11.1 58 58 SW 3 6 30.26 1025 10 16 0.00 0.00
4:53 pm 16:53 Sunny 28 -2.2 14 -10 56 56 VRB 3 6 30.27 1025 10 16 0.00 0.00
5:53 pm 17:53 Mostly Cloudy 28 -2.2 15 -9.4 58 58 E 5 7 30.26 1025 10 16 0.00 0.00
6:53 pm 18:53 Partly Cloudy 27 -2.8 14 -10 58 58 NE 5 7 30.27 1025 10 16 0.00 0.00
7:53 pm 19:53 Cloudy 24 -4.4 13 -10.6 62 62 NE 3 6 30.27 1025 10 16 0.00 0.00
8:53 pm 20:53 Mostly Cloudy 23 -5 14 -10 68 68 ESE 6 9 30.29 1026 10 16 0.00 0.00
9:53 pm 21:53 Clear 19 -7.2 11 -11.7 71 71 SE 6 9 30.31 1026 10 16 0.00 0.00
10:53 pm 22:53 Clear 20 -6.7 11 -11.7 68 68 ESE 6 9 30.30 1026 10 16 0.00 0.00
11:53 pm 23:53 Clear 19 -7.2 10 -12.2 68 68 SSE 9 15 30.30 1026 10 16 0.00 0.00

Powered by AerisWeather